Погода в Твери

Погода в Твери : погода сейчас, прогноз погоды и архив. Всё, что Вы хотите узнать о погоде в Твери!

Хотите узнать прогноз погоды в Твери? Тогда Вам сюда: Погода в Твери

Поиск расширенной информации на нашем сайте:

Другие новости

Новости СМИ2

Главная страница сайта

Новости сайта

03.07.2017

Напоминаем, что на нашем специализированном сайте Метеоцентр.Азия вы можете получить высокодетализированные автоматические прогнозы погоды по пунктам России, СНГ и мира в авиационном формате (включающие направление и скорость ветра, видимость, явления погоды, количество и форму облачности, нижнюю и верхнюю границу облачности).


Погода в Твери - сегодня

Время (UTC), дата Ветер
(°,м/с) 
Видим.   Явления Облачность Т
(°С)
Тd
(°С)
f(%) Тe
(°С)
Pmin
(гПа)
dP
(гПа)
Po
(мм)
O2
(г/м3)
Тmin Tmax R s Состояние
почвы
09 18.07.17 210 (ЮЗ) 10 км    8/6 1020 м средняя 
[Sc|Ac trans]
+20.3 +10 52 +22  1014.3  -0.4  748  279           
12 18.07.17 280 (З) 10 км  {ливн. осадки}  8/4 1000 м средняя, верхняя 
[Sc|Ac trans|Ci fib]
+21.6 +9.6 46 +22  1013.8  -0.4  748  277           
15 18.07.17 250 (З) 10 км    8/4 1000 м средняя, верхняя 
[Sc|Ac trans|Ci fib]
+21.5 +7.8 41 +22  1013.5  -0.3  747  278      0.3     
18 18.07.17 тихо ()   10 км    8/0 средняя 
[Ac trans]
+16.9 +9.9 63 +18  1014.5  0.7  748  282    +22.1  0.3     
21 18.07.17 тихо ()   10 км    ясно 
+12.3 +9.5 83 +13  1015.4  0.6  748  287           
00 19.07.17 тихо ()   10 км    5/0 средняя 
[Ac trans]
+10.3 +9.1 92 +10  1015.8  0.3  749  289           
03 19.07.17 210 (ЮЗ) 10 км    8/0 средняя 
[Ac trans]
+12.1 +9.2 82 +13  1015.6  -0.1  749  287  +9.9         
06 19.07.17 250 (З) 10 км    3/0 средняя 
[Ac trans]
+15.8 +9.8 67 +18  1015.8  0.4  749  284  +9.9        влажная 
09 19.07.17 270 (З) 10 км    4/4 1000 м 
[Cu med, cong]
+19.3 +7.5 46 +21  1016.2  0.5  749  281           
12 19.07.17 240 (ЮЗ) 10 км    4/3 600 м средняя 
[Cu med, cong|Ac trans]
+21.1 +5.9 37 +21  1015.4  -0.6  749  279           
15 19.07.17 240 (ЮЗ) 10 км    6/3 1000 м средняя 
[Sc|Ac trans]
+19.6 +7.3 45 +21  1015.3  -0.2  749  280           
18 19.07.17 тихо ()   10 км    4/3 1000 м средняя 
[Sc|Ac trans]
+15.4 +9.8 69 +16  1016.2  0.6  749  284    +21.2       
21 19.07.17 тихо ()   10 км    3/0 средняя 
[Ac trans]
+10.6 +8.9 89 +11  1016.1  -0.4  749  289           
00 20.07.17 тихо ()   10 км  туман поземный  3/0 средняя 
[Ac trans]
+9 +7.6 91 +9  1016.2  749  291           
03 20.07.17 тихо ()   10 км    6/0 средняя 
[Ac trans]
+11.2 +10 92 +12  1015.8  -0.3  749  288  +7.9         
06 20.07.17 220 (ЮЗ) 10 км    4/0 средняя 
[Ac trans]
+17.9 +10.1 60 +20  1015.4  749  281  +7.9        влажная 
09 20.07.17 190 (Ю) 10 км    8/5 600 м средняя 
[Sc|Ac trans]
+21.6 +7.9 41 +22  1014.4  -0.8  748  278           
12 20.07.17 320 (СЗ) 10 км    8/5 600 м кучево-дожд., средняя 
[Cb calv|Ac trans]
+18.8 +9.4 54 +20  1013.6  -0.9  747  280           
15 20.07.17 070 (В) 10 км  в посл. час ливневой дождь  8/4 600 м средняя 
[Sc|Ac trans]
+17.7 +13 74 +24  1013.4  -0.2  747  280         
18 20.07.17 050 (СВ) 10 км  {ливн. осадки}  8/4 600 м средняя 
[Sc|Ac trans]
+13.4 +11.7 89 +19  1013.2  -0.5  747  285    +23.4     
21 20.07.17 140 (ЮВ) 4000 м  слаб. ливневой дождь  8/8 600 м кучево-дожд. 
[Cb calv]
+12.4 +11 91 +15  1013.1  0.1  747  286           
00 21.07.17 тихо ()   10 км  слаб. ливневой дождь  10/8 800 м кучево-дожд., средняя 
[Cb calv|Ac trans]
+12.4 +11.5 94 +16  1012.7  -0.4  746  286           
03 21.07.17 тихо ()   10 км  туман поземный{ливн. осадки}  6/0 средняя 
[Ac trans]
+12.2 +11.4 95 +15  1012.8  0.1  747  286  +11       
06 21.07.17 270 (З) 10 км  {ливн. осадки}  9/5 600 м кучево-дожд., средняя 
[Cb cap|Ac trans]
+15.4 +12 80 +21  1013.1  0.5  747  283  +11      влажная 
09 21.07.17 300 (СЗ) 10 км  {гроза}  6/5 600 м кучево-дожд., средняя 
[Cb cap|Ac trans]
+19.2 +10 55 +22  1013.1  0.2  747  279           
Время (UTC), дата Ветер
(°,м/с) 
Видим.   Явления Облачность Т
(°С)
Тd
(°С)
f(%) Тe
(°С)
Pmin
(гПа)
dP
(гПа)
Po
(мм)
O2
(г/м3)
Тmin Tmax R s Состояние
почвы

Для получения пояснительной информации подведите курсор к названию столбца.

ПОГОДА в Твери - архив

Всё, что Вы хотите узнать о погоде в Твери - удобно и подробно!

Выберите нужную дату (начиная с 1 января 2015* года) и нажмите кнопку "Найти".
Будут отображены архивные сводки погоды по пункту Тверь, начиная с указанной даты.


Отображать данные в формате CSV (для использования в таблицах Excel)


Внимание! Наш архив погоды предназначен исключительно для личного некоммерческого использования в познавательных целях. Если Вам необходимы официальные справки о состоянии погоды (для производственных, юридических, коммерческих и т.п. целей), обращайтесь в органы Росгидромета.

*Примечание: данная дата относится к архиву по метеостанциям СССР (Россия, СНГ, Балтия).
Архив по метеостанциям Зарубежной Европы и Азии (кроме Китая) хранится 10 дней, по другим регионам земного шара (Китай, Африка, Америка, Австралия, Океания) - 1 день.

Тверь - район местоположения метеостанции


Название, широта, долгота, высота метеостанции:
Тверь (город) 56.8°ш. 35.7°д. 137 м над ур. моря [Российская Федерация]

Дополнительная информация

В oтличие oт бoльшинства пoгoдных сайтoв мы публикуем пoдрoбную метеoинфoрмацию в детальнoм прoфессиoнальнoм фoрмате.

Характеристики температуры и влажнoсти вoздуха измеряются на высoте 2 м в тени вдали oт зданий и деревьев.
Скoрoсть ветра измеряется на высoте 10 м (на урoвне рoста челoвека скoрoсть ветра ниже в 1.5-2 раза). Если метеoстанция нахoдится в гoрoде или в лесу, тo скoрoсть ветра занижена на 2-4 м/с пo сравнению с oткрытым местoм. Скoрoсть ветра над акватoриями крупных рек и oзёр, а также на вершинах хoлмoв на 2-5 м/с выше, чем в oбычных услoвиях.
Атмoсфернoе давление в разных тoчках местнoсти мoжет значительнo oтличаться oт давления на метеoстанции, в зависимoсти oт услoвий рельефа (при пoдъёме на 10 м давление пoнижается примернo на 1 мм рт.ст.).